Needles, CA

10:34 AM PDT on June 20, 2018 (GMT -0700)
Needles

Weather History for KEED - October, 2017

Change the Weather History Date:

Saturday, October 7, 2017

  Actual Average Record
Temperature  
Mean Temperature 83 °F 78 °F  
Max Temperature 98 °F 91 °F 104 °F (1980)
Min Temperature 67 °F 65 °F 40 °F (1915)
Degree Days  
Heating Degree Days 0    
Cooling Degree Days 18    
Growing Degree Days 33 (Base 50)    
Moisture  
Dew Point 20 °F    
Average Humidity 11    
Maximum Humidity 17    
Minimum Humidity 5    
Precipitation  
Precipitation 0.00 in 0.01 in 0.01 in (2014)
Month to date precipitation 0.00 0.06  
Year to date precipitation 2.57 3.51  
Sea Level Pressure  
Sea Level Pressure 29.72 in    
Wind  
Wind Speed 7 mph (North)    
Max Wind Speed 14 mph    
Max Gust Speed 20 mph    
Visibility 10 miles    
Events      
T = Trace of Precipitation, MM = Missing Value Source: NWS Daily Summary

Daily Weather History Graph

Daily Weather History Graph

Search for Another Location

Airport or City:

Astronomy

Oct. 07, 2017 Rise Set
Actual Time 6:38 AM PDT 6:13 PM PDT
Civil Twilight 6:12 AM PDT 6:38 PM PDT
Nautical Twilight 5:43 AM PDT 7:08 PM PDT
Astronomical Twilight 5:14 AM PDT 7:37 PM PDT
Moon 7:59 PM PDT (10/7) 8:33 AM PDT (10/7)
Length of Visible Light 12h 26m
Length of Day
11h 35m
Waning Gibbous, 95% of the Moon is Illuminated
Oct 7
Waning Gibbous
Oct 12
Last Quarter
Oct 19
New
Oct 27
First Quarter
Nov 3
Full

Hourly Weather History & Observations

Time (PDT) Temp. Dew Point Humidity Pressure Visibility Wind Dir Wind Speed Gust Speed Precip Events Conditions
12:56 AM 71.1 °F 18.0 °F 13% 29.82 in 10.0 mi Calm Calm - N/A   Clear
1:56 AM 69.1 °F 19.0 °F 15% 29.82 in 10.0 mi Calm Calm - N/A   Clear
2:56 AM 73.0 °F 21.0 °F 14% 29.81 in 10.0 mi NNW 5.8 mph - N/A   Clear
3:56 AM 73.0 °F 21.9 °F 15% 29.79 in 10.0 mi North 8.1 mph - N/A   Clear
4:56 AM 71.1 °F 23.0 °F 16% 29.80 in 10.0 mi NNW 9.2 mph - N/A   Clear
5:56 AM 72.0 °F 24.1 °F 17% 29.79 in 10.0 mi North 10.4 mph - N/A   Clear
6:56 AM 71.1 °F 24.1 °F 17% 29.81 in 10.0 mi WNW 6.9 mph - N/A   Clear
7:56 AM 75.9 °F 25.0 °F 15% 29.81 in 10.0 mi NNW 8.1 mph - N/A   Clear
8:56 AM 81.0 °F 25.0 °F 13% 29.83 in 10.0 mi North 9.2 mph - N/A   Clear
10:56 AM 87.1 °F 24.1 °F 10% 29.80 in 10.0 mi North 9.2 mph - N/A   Clear
11:56 AM 91.0 °F 24.1 °F 9% 29.77 in 10.0 mi North 12.7 mph - N/A   Clear
12:56 PM 93.9 °F 19.9 °F 7% 29.74 in 10.0 mi North 12.7 mph - N/A   Clear
1:56 PM 96.1 °F 19.0 °F 6% 29.71 in 10.0 mi NNE 10.4 mph - N/A   Clear
2:56 PM 96.1 °F 17.1 °F 6% 29.67 in 10.0 mi Calm Calm - N/A   Clear
3:56 PM 97.0 °F 12.0 °F 4% 29.65 in 10.0 mi Variable 3.5 mph - N/A   Clear
4:56 PM 97.0 °F 16.0 °F 5% 29.63 in 10.0 mi East 4.6 mph - N/A   Clear
5:56 PM 93.9 °F 16.0 °F 6% 29.62 in 10.0 mi East 3.5 mph - N/A   Clear
6:56 PM 86.0 °F 18.0 °F 8% 29.62 in 10.0 mi Calm Calm - N/A   Clear
7:56 PM 82.0 °F 17.1 °F 9% 29.62 in 10.0 mi WSW 11.5 mph - N/A   Clear
8:56 PM 82.0 °F 17.1 °F 9% 29.62 in 10.0 mi WSW 11.5 mph - N/A   Clear
9:56 PM 80.1 °F 17.1 °F 9% 29.61 in 10.0 mi ENE 5.8 mph - N/A   Clear
10:56 PM 78.1 °F 18.0 °F 10% 29.61 in 10.0 mi Calm Calm - N/A   Clear
11:56 PM 73.9 °F 18.0 °F 12% 29.61 in 10.0 mi WNW 3.5 mph - N/A   Clear